"Pseudo-MPEC" for P11DAyL

Created 2023 Mar 20 6:22:12 UT using Find_Orb

Click here for an explanation of pseudo-MPECs

 
 Astrometry: 
     P11DAyL  C2023 03 17cp_)d9#X8F8@t4E*e/5@A%a__xRF4,/^Fm^0`;Bxa[[I=?4/U!4pF51
     P11DAyL  C2023 03 17aMn9s\F]@l*%Vjtxi\3aq\Y7K_FZ;4PaEo4'oq;![KFU$ik7P=NcF51
     P11DAyL  C2023 03 17.S#T3Bct]biqD9iTD[jj^Y\udy#M-V*;iH]-vtIfkmY4m3YNmIsQF51
     P11DAyL* C2023 03 18]U'GT*N;;3V^5mk2g;R2b1GVxZ^F)Ww@fXAt=p5X]Er8b*YW\F?mF51
     P11DAyL  C2023 03 18mOFMhl0yCQfr`?BPQ%uGR4c\G@?m:f:C2A1$Re]+$/kw,A(eq)=+F51
     P11DAyL  C2023 03 18m,gs[9n%L6j*hU,%`dh,at'C`xMW]@Wj-*DiD8HJN8.pH;u.Ynu8F51
     P11DAyL  C2023 03 18vRNkd2eAMFpJ8Ng0\]XQ3A1Q5,CeJvnp`[[\b;\X?tvmaaPy?[2:F52
     P11DAyL  C2023 03 18l=PR`oW6cMvCb2%KMa)G6Z:QADP:ULY_%@.\Vrc-oKsuP64GLHb$F52
     P11DAyL 1C2023 03 18.79728 09 05 05.52 +05 46 31.0    ~3IJb 20.6 VXNEOCP033
     P11DAyL 1C2023 03 18.79849 09 05 05.75 +05 46 28.1    ~3IJb 20.3 VXNEOCP033
     P11DAyL 1C2023 03 18.79970 09 05 05.99 +05 46 25.2    ~3IJb 20.7 VXNEOCP033
     P11DAyL KC2023 03 18i,.]fK89*w$,T5XAstrometry=vMBoso9-=?/YCx?,[,WNy;K=@1L01
     P11DAyL KC2023 03 18K/Ch+q0s]redacted;IfDf,Sy)+?5A%Fo$btu\,FkOhvxvN\y:fFL01
     P11DAyL KC2023 03 18Z?*?^?`=@UA(Ppd6clickpU?^+t][HsZS=3@GSX@mv`IqhSh,C8;106
     P11DAyL KC2023 03 18wF6Z'8-U`rN\?[o9NkwB**OMwjjtkZ.Ls;hN!+FOA?06X_[26xUAL01
     P11DAyL KC2023 03 18\^HY(8SsMaFVhtXMtaomr_%1u8GsGB/_kiA]vo08oVn]*LeXhZ%`106
     P11DAyL KC2023 03 18s+KnwrAxoQ]`@XCMT.Bd#ZI)E'qY-1Rl\!i/Bg$s$9\;00o,4uf]106
     P11DAyL KC2023 03 18%ePDKbQ=xhereR`-tMen+)ahEKRnD^\?%?xj8O5c7@[irAQFI:TV106
     P11DAyL KC2023 03 19vy'NGK3^E8WC\orK3cknSci*0l$GT4CSrUA_9fQp03f\_yFPGS:j734
     P11DAyL KC2023 03 197$]7\*lq'y3S..8GOir9W^u7ul8N`(eeW!I#rQ_^1Gw2v@*5wBe9734
     P11DAyL KC2023 03 193:`forKCFT.???@CB8tyQXdx/PO*[d'W)ukD[pg[JODItgkf;D=M734
     P11DAyL KC2023 03 20.p7_EAtcH+mwPk2G2nKaHo0C6Vc+T'Y=wJvkP_m[Rkfw#3/K^KN.H21
     P11DAyL KC2023 03 20[qxk4*F;==lg?hXI(%^ZpJ2N7AyvlM*(x(M3fM()jOJcq\2ybK42H21
     P11DAyL KC2023 03 20OF`gg:cZgG@explanation)i-J=5S-Xq6:]5V.Ii^I)K7ChKeiA+H21
     P11DAyL KC2023 03 20r08BM'P5Fb,6ViK3ROV6x_;i]]nHL5-xFyAMKb3HilBVDK24#LOGH21
     P11DAyL KC2023 03 20/2;18+r6+qWXQ\u2IwN9iJI3u\!ybPFK;\TFTkQKdV99hb6qUZA%H21

Station data:
(033) Karl Schwarzschild Observatory, Tautenburg  (N50.980137 E11.711240)
   Germany.  Observers S. Melnikov, C. Hoegner, B. Stecklum. Measurer B.
   Stecklum. 1.34-m f/3 Schmidt + CCD.
(106) Črni Vrh  (N45.945905 E14.071100)  Slovenia.  Observer J. Skvarč. 0.6-m
   f/3.3 Deltagraph + CCD.
(734) Farpoint Observatory, Eskridge  (N38.890104 W96.001400)  US/Kansas.
   Observer G. Hug. 0.69-m reflector + CCD.
(F51) Pan-STARRS 1, Haleakala  (N20.707234 W156.255910)  US/Hawaii.
   Observers J. Bulger, T. Lowe, A. Schultz, M. Willman. Measurers K.
   Chambers, S. Chastel, T. de Boer, L. Denneau, J. Fairlamb, H. Flewelling,
   M. Huber, C.-C. Lin, E. Magnier, Y. Ramanjooloo, R. Wainscoat, R. Weryk.
   1.8-m Ritchey-Chrétien + CCD.
(F52) Pan-STARRS 2, Haleakala  (N20.707382 W156.255910)  US/Hawaii.
   Observers J. Bulger, T. Dukes, T. Lowe, A. Schultz, M. Willman. Measurers
   K. Chambers, S. Chastel, T. de Boer, L. Denneau, J. Fairlamb, H.
   Flewelling, M. Huber, C.-C. Lin, E. Magnier, Y. Ramanjooloo, R. Wainscoat,
   R. Weryk. 1.8-m Ritchey-Chrétien + CCD.
(H21) Astronomical Research Observatory, Westfield  (N39.483054 W87.968270)
   US/Illinois.  Observer R. Holmes. Measurers S. Foglia, L. Buzzi, T.
   Linder, R. Holmes. 0.76-m f/3.0 astrograph + CCD0.81-m f/4.0 astrograph +
   CCD0.61-m f/4.5 astrograph + CCD0.40-m f/5.32 astrograph + CCD.
(L01) Višnjan Observatory, Tičan  (N45.290897 E13.749300)  Croatia.
   Observers K. Korlević, D. Pujagic, V. Dobos. Measurers D. Pujagic, K.
   Korlević. 1.0-m f/2.9 reflector + CCD.

Orbital elements:  P11DAyL
   Perihelion 2023 Jan 9.69883 +/- 0.0625 TT = 16:46:19 (JD 2459954.19883)
Epoch 2023 Mar 20.0 TT = JDT 2460023.5   Earth MOID: 0.0358   Ma: 0.0583
M  42.88916663 +/- 0.13             (J2000 ecliptic)             AutoNEOCP
n   0.61888086 +/- 0.00146          Peri.  118.09072 +/- 0.07
a   1.36373926 +/- 0.00215          Node   339.03199 +/- 0.014
e   0.3201453 +/- 0.000976          Incl.    7.04146 +/- 0.016
P   1.59/581.68d           H 22.93  G  0.15   U  8.4
q 0.92714441 +/- 0.000253    Q 1.80033411 +/- 0.00416
From 26 observations 2023 Mar. 17-20; mean residual 0".15
Residuals in arcseconds: 
230317 F51  .01+  .03+    230318 033  .07-  .08+    230319 734  .01-  .11-    
230317 F51  .04-  .08+    230318 033  .08-  .07+    230319 734  .36+  .16-    
230317 F51  .07+  .08-    230318 L01  .23-  .18+    230319 734  .23+  .26-    
230318 F51  .06-  .09+    230318 L01  .04+  .01-    230320 H21  .15-  .03+    
230318 F51  .03+  .01+    230318 106  .05+  .35-    230320 H21  .16-  .10+    
230318 F51  .06-  .06-    230318 L01  .26+  .07+    230320 H21  .02-  .02-    
230318 F52  .01+  .06-    230318 106  .51-  .05+    230320 H21  .12+  .05+    
230318 F52  .00   .00     230318 106  .27+  .17+    230320 H21  .18+  .15+    
230318 033  .09+  .10+    230318 106  .29-  .09+    

Ephemerides (geocentric):
Date (UTC) HH   RA             Dec           delta  r     elong  mag " sig PA
---- --------  ------------   ------------  ------ ------ -----  --- --------
2023 03 20 06  09 10 03.014   +04 51 39.58  .18100 1.1371 138.2 21.0 .183 171
2023 03 20 07  09 10 11.307   +04 50 08.34  .18124 1.1373 138.2 21.0 .188 170
2023 03 20 08  09 10 19.586   +04 48 37.34  .18149 1.1375 138.2 21.0 .194 170
2023 03 20 09  09 10 27.850   +04 47 06.55  .18173 1.1377 138.2 21.0 .200 169
2023 03 20 10  09 10 36.101   +04 45 36.00  .18197 1.1379 138.2 21.0 .207 168
2023 03 20 11  09 10 44.339   +04 44 05.66  .18221 1.1381 138.2 21.0 .213 168
2023 03 20 12  09 10 52.562   +04 42 35.55  .18245 1.1383 138.2 21.0 .219 167
2023 03 20 13  09 11 00.772   +04 41 05.66  .18269 1.1385 138.2 21.0 .226 167
2023 03 20 14  09 11 08.968   +04 39 35.99  .18294 1.1387 138.2 21.0 .232 166
2023 03 20 15  09 11 17.151   +04 38 06.55  .18318 1.1389 138.2 21.0 .239 166
2023 03 20 16  09 11 25.320   +04 36 37.32  .18342 1.1391 138.2 21.0 .246 166
2023 03 20 17  09 11 33.476   +04 35 08.31  .18366 1.1393 138.2 21.0 .253 165
2023 03 20 18  09 11 41.618   +04 33 39.53  .18391 1.1395 138.2 21.0 .259 165
2023 03 20 19  09 11 49.747   +04 32 10.95  .18415 1.1397 138.2 21.1 .267 164
2023 03 20 20  09 11 57.862   +04 30 42.60  .18439 1.1399 138.2 21.1 .274 164
2023 03 20 21  09 12 05.965   +04 29 14.47  .18464 1.1401 138.1 21.1 .281 164
2023 03 20 22  09 12 14.054   +04 27 46.55  .18488 1.1403 138.1 21.1 .288 163
2023 03 20 23  09 12 22.130   +04 26 18.84  .18512 1.1405 138.1 21.1 .296 163
2023 03 21 00  09 12 30.193   +04 24 51.35  .18537 1.1407 138.1 21.1 .303 163
2023 03 21 01  09 12 38.243   +04 23 24.08  .18561 1.1409 138.1 21.1 .311 162
2023 03 21 02  09 12 46.280   +04 21 57.01  .18586 1.1411 138.1 21.1 .318 162
2023 03 21 03  09 12 54.304   +04 20 30.16  .18610 1.1413 138.1 21.1 .326 162
2023 03 21 04  09 13 02.315   +04 19 03.52  .18635 1.1415 138.1 21.1 .334 162
2023 03 21 05  09 13 10.313   +04 17 37.10  .18659 1.1417 138.1 21.1 .342 161
2023 03 21 06  09 13 18.299   +04 16 10.88  .18684 1.1419 138.1 21.1 .350 161
2023 03 21 07  09 13 26.271   +04 14 44.88  .18708 1.1421 138.1 21.1 .358 161
2023 03 21 08  09 13 34.232   +04 13 19.08  .18733 1.1423 138.1 21.1 .366 161
2023 03 21 09  09 13 42.179   +04 11 53.49  .18757 1.1425 138.1 21.1 .374 160
2023 03 21 10  09 13 50.114   +04 10 28.11  .18782 1.1427 138.1 21.1 .383 160
2023 03 21 11  09 13 58.036   +04 09 02.94  .18806 1.1429 138.1 21.1 .391 160
2023 03 21 12  09 14 05.946   +04 07 37.98  .18831 1.1431 138.1 21.1 .399 160
2023 03 21 13  09 14 13.844   +04 06 13.22  .18855 1.1433 138.1 21.1 .408 160
2023 03 21 14  09 14 21.729   +04 04 48.67  .18880 1.1435 138.1 21.1 .416 160
2023 03 21 15  09 14 29.602   +04 03 24.32  .18905 1.1437 138.1 21.1 .425 159
2023 03 21 16  09 14 37.462   +04 02 00.17  .18929 1.1439 138.1 21.1 .434 159
2023 03 21 17  09 14 45.311   +04 00 36.23  .18954 1.1441 138.1 21.1 .443 159
2023 03 21 18  09 14 53.147   +03 59 12.49  .18979 1.1443 138.1 21.1 .451 159
2023 03 21 19  09 15 00.971   +03 57 48.96  .19003 1.1445 138.0 21.1 .460 159
2023 03 21 20  09 15 08.783   +03 56 25.63  .19028 1.1447 138.0 21.1 .469 159
2023 03 21 21  09 15 16.582   +03 55 02.49  .19053 1.1449 138.0 21.1 .478 158
2023 03 21 22  09 15 24.370   +03 53 39.56  .19078 1.1451 138.0 21.1 .488 158
2023 03 21 23  09 15 32.146   +03 52 16.83  .19102 1.1453 138.0 21.1 .497 158
2023 03 22 00  09 15 39.910   +03 50 54.30  .19127 1.1455 138.0 21.1 .506 158
2023 03 22 01  09 15 47.662   +03 49 31.96  .19152 1.1457 138.0 21.1 .515 158
2023 03 22 02  09 15 55.403   +03 48 09.82  .19177 1.1459 138.0 21.1 .525 158
2023 03 22 03  09 16 03.131   +03 46 47.88  .19202 1.1461 138.0 21.2 .534 158
2023 03 22 04  09 16 10.848   +03 45 26.14  .19226 1.1463 138.0 21.2 .543 158
2023 03 22 05  09 16 18.554   +03 44 04.60  .19251 1.1466 138.0 21.2 .553 157